{"data":{"norad_id":67179,"intl_designator":"2025-303S","name":"STARLINK-35793","alt_names":[],"object_type":"PAYLOAD","status":"ACTIVE","operator":null,"country":"US","launch_date":"2025-12-17","launch_site_code":"AFETR","launch_vehicle":null,"mission":null,"orbit_class":"UNKNOWN","rcs_meters":null,"size_class":null,"mass_kg":null,"dimensions":null,"purposes":["comms"],"wikipedia_slug":null,"has_3d_model":false,"image_url":null,"decayed_at":null,"tle_current":{"epoch":"2026-09-20T18:54:29.065824Z","epoch_age_seconds":54202,"freshness":"FRESH","line1":"1 67179U 25303S   26263.78783641  .00015257  00000+0  56262-3 0  9999","line2":"2 67179  43.0026 288.8367 0001630 268.0572  92.0093 15.27590877 42571","mean_motion":15.27590877,"eccentricity":0.000163,"inclination_deg":43.0026,"raan_deg":288.8367,"arg_perigee_deg":268.0572,"mean_anomaly_deg":92.0093,"bstar":0.00056262,"rev_number":4257,"period_min":94.266077500278,"perigee_km":481.8981585571,"apogee_km":484.13489460676,"semimajor_km":6861.1535265819,"source":"CELESTRAK","updated_at":"2026-09-21T09:00:36.131310Z"}}}